KE5BM-13 Weather Reports


time (UTC)temp
C
wind
direction
speed
KPH
gust
KPH
rain 1hr
cm
rain 24hr
cm
rain mn
cm
humidity
%
barometer
mb
20260505110935 12 182 6.4 14.5 0.00 0.00 0.00 88 1011.8
20260505110435 11 176 8.0 14.5 0.00 0.00 0.00 89 1011.7
20260505101926 11 151 8.0 16.1 0.00 0.00 0.00 89 1011.6
20260505101425 11 202 8.0 14.5 0.00 0.00 0.00 89 1011.5
20260505100926 11 166 8.0 16.1 0.00 0.00 0.00 89 1011.5
20260505100424 11 153 8.0 20.9 0.00 0.00 0.00 89 1011.5
20260505095924 11 138 8.0 20.9 0.00 0.00 0.00 89 1011.5
20260505095425 11 181 6.4 16.1 0.00 0.00 0.00 89 1011.5
20260505094922 11 138 4.8 16.1 0.00 0.00 0.00 89 1011.5
20260505094422 11 155 6.4 16.1 0.00 0.00 0.00 89 1011.5
20260505093922 11 196 6.4 14.5 0.00 0.00 0.00 89 1011.5
20260505093420 11 160 6.4 14.5 0.00 0.00 0.00 89 1011.4
20260505092920 11 155 4.8 12.9 0.00 0.00 0.00 89 1011.3
20260505092419 11 134 4.8 12.9 0.00 0.00 0.00 89 1011.3
20260505091917 11 164 3.2 11.3 0.00 0.00 0.00 89 1011.4
20260505091418 11 155 4.8 11.3 0.00 0.00 0.00 90 1011.4
20260505090917 10 172 3.2 9.7 0.00 0.00 0.00 90 1011.4
20260505090418 10 175 3.2 8.0 0.00 0.00 0.00 90 1011.3
20260505085918 10 152 3.2 8.0 0.00 0.00 0.00 90 1011.4
20260505085416 10 207 3.2 9.7 0.00 0.00 0.00 90 1011.4
20260505084915 10 149 3.2 9.7 0.00 0.00 0.00 90 1011.4
20260505084412 10 156 3.2 11.3 0.00 0.00 0.00 90 1011.3
20260505083912 10 196 3.2 11.3 0.00 0.00 0.00 91 1011.3
20260505083407 10 171 3.2 8.0 0.00 0.00 0.00 91 1011.4
20260505082904 10 163 3.2 8.0 0.00 0.00 0.00 91 1011.4
20260505082347 10 139 3.2 8.0 0.00 0.00 0.00 91 1011.5
20260505081844 10 177 3.2 8.0 0.00 0.00 0.00 91 1011.5
20260505081344 10 153 3.2 8.0 0.00 0.00 0.00 91 1011.6
20260505080842 10 150 3.2 11.3 0.00 0.00 0.00 91 1011.6
20260505080344 10 173 4.8 11.3 0.00 0.00 0.00 91 1011.7
20260505075834 10 160 4.8 11.3 0.00 0.00 0.00 91 1011.6
20260505075334 10 173 3.2 11.3 0.00 0.00 0.00 91 1011.7
20260505074831 10 225 3.2 9.7 0.00 0.00 0.00 91 1011.7
20260505074335 10 161 3.2 9.7 0.00 0.00 0.00 90 1011.7
20260505073821 11 123 3.2 8.0 0.00 0.00 0.00 90 1011.6
20260505073325 11 161 3.2 8.0 0.00 0.00 0.00 90 1011.7
20260505072819 11 194 3.2 9.7 0.00 0.00 0.00 90 1011.7
20260505072318 11 153 4.8 11.3 0.00 0.00 0.00 90 1011.6
20260505071818 11 154 4.8 11.3 0.00 0.00 0.00 90 1011.7
20260505071317 11 169 4.8 9.7 0.00 0.00 0.00 90 1011.6
20260505070815 11 191 4.8 11.3 0.00 0.00 0.00 89 1011.6
20260505070316 11 130 4.8 19.3 0.00 0.00 0.00 89 1011.6
20260505065815 11 171 4.8 19.3 0.00 0.00 0.00 90 1011.7
20260505065315 11 209 4.8 12.9 0.00 0.00 0.00 90 1011.6
20260505064810 11 168 4.8 16.1 0.00 0.00 0.00 90 1011.5
20260505064311 11 203 3.2 16.1 0.00 0.00 0.00 90 1011.5
20260505063804 11 250 3.2 12.9 0.00 0.00 0.00 90 1011.4
20260505063305 11 201 3.2 12.9 0.00 0.00 0.00 90 1011.4
20260505062804 11 194 3.2 12.9 0.00 0.00 0.00 90 1011.4
20260505062304 11 154 4.8 12.9 0.00 0.00 0.00 90 1011.5
20260505061805 11 197 3.2 11.3 0.00 0.00 0.00 90 1011.5
20260505061304 11 167 3.2 12.9 0.00 0.00 0.00 89 1011.5
20260505060804 11 186 3.2 12.9 0.00 0.00 0.00 89 1011.4
20260505060304 11 239 3.2 8.0 0.00 0.00 0.00 89 1011.5
20260505055803 11 225 3.2 9.7 0.00 0.00 0.00 89 1011.5
20260505055303 11 185 4.8 11.3 0.00 0.00 0.00 89 1011.5
20260505054802 11 169 4.8 12.9 0.00 0.00 0.00 89 1011.6
20260505054257 11 156 4.8 12.9 0.00 0.00 0.00 88 1011.5
20260505053759 11 177 4.8 11.3 0.00 0.00 0.00 88 1011.6
20260505053257 11 191 4.8 12.9 0.00 0.00 0.00 88 1011.6
20260505052756 11 148 4.8 12.9 0.00 0.00 0.00 88 1011.6
20260505052256 11 206 4.8 12.9 0.00 0.00 0.00 88 1011.6
20260505051753 11 137 4.8 12.9 0.00 0.00 0.00 88 1011.6
20260505051253 11 180 4.8 12.9 0.00 0.00 0.00 87 1011.6
20260505050753 11 211 3.2 14.5 0.00 0.00 0.00 87 1011.5
20260505050252 11 171 4.8 14.5 0.00 0.00 0.00 87 1011.6
20260505041750 11 164 6.4 14.5 0.00 0.00 0.00 86 1011.9
20260505041250 11 184 6.4 16.1 0.00 0.00 0.00 85 1011.9
20260505040751 11 165 6.4 16.1 0.00 0.00 0.00 85 1012.0
20260505040250 11 169 6.4 14.5 0.00 0.00 0.00 85 1012.0
20260505035748 11 216 6.4 14.5 0.00 0.00 0.00 85 1012.0
20260505035247 11 162 6.4 16.1 0.00 0.00 0.00 84 1012.1
20260505034749 11 213 6.4 17.7 0.00 0.00 0.00 84 1012.1
20260505034246 11 161 6.4 17.7 0.00 0.00 0.00 84 1012.1
20260505033745 11 153 4.8 12.9 0.00 0.00 0.00 84 1012.1
20260505033245 11 163 4.8 11.3 0.00 0.00 0.00 84 1012.1
20260505032747 11 227 6.4 14.5 0.00 0.00 0.00 84 1012.0
20260505032245 11 182 6.4 17.7 0.00 0.00 0.00 83 1011.9
20260505031742 11 186 6.4 17.7 0.00 0.00 0.00 83 1011.9
20260505031241 11 198 8.0 19.3 0.00 0.00 0.00 83 1012.0
20260505030742 11 255 6.4 24.1 0.00 0.00 0.00 83 1012.0
20260505030240 11 170 6.4 24.1 0.00 0.00 0.00 83 1012.0
20260505025746 11 122 6.4 17.7 0.00 0.00 0.00 82 1012.0
20260505025239 11 174 8.0 17.7 0.00 0.00 0.00 82 1011.9
20260505024741 11 243 6.4 22.5 0.00 0.00 0.00 82 1012.1
20260505024238 11 275 6.4 24.1 0.00 0.00 0.00 82 1012.1
20260505023738 11 202 8.0 27.4 0.00 0.00 0.00 81 1012.1
20260505023236 11 220 6.4 27.4 0.00 0.00 0.00 81 1012.0
20260505022736 11 148 6.4 20.9 0.00 0.00 0.00 81 1012.1
20260505022237 11 151 8.0 22.5 0.00 0.00 0.00 80 1012.0
20260505021735 11 215 8.0 22.5 0.00 0.00 0.00 80 1012.0
20260505021233 11 140 8.0 22.5 0.00 0.00 0.00 80 1012.0
20260505020735 11 204 8.0 22.5 0.00 0.00 0.00 80 1012.0
20260505020235 11 166 8.0 22.5 0.00 0.00 0.00 80 1011.8
20260505015731 11 161 8.0 20.9 0.00 0.00 0.00 80 1011.8
20260505015234 12 204 8.0 30.6 0.00 0.00 0.00 80 1011.8
20260505014731 12 184 8.0 30.6 0.00 0.00 0.00 80 1011.8
20260505014231 12 178 9.7 24.1 0.00 0.00 0.00 79 1011.7
20260505013731 12 155 9.7 25.7 0.00 0.00 0.00 79 1011.8
20260505013229 12 205 8.0 25.7 0.00 0.00 0.00 79 1011.6
20260505012729 12 119 9.7 24.1 0.00 0.00 0.00 78 1011.5
20260505012228 12 159 9.7 30.6 0.00 0.00 0.00 78 1011.2
20260505011727 12 144 9.7 30.6 0.00 0.00 0.00 77 1011.4
20260505011227 12 189 8.0 19.3 0.00 0.00 0.00 77 1011.1
20260505010726 12 242 9.7 20.9 0.00 0.00 0.00 77 1011.2
20260505010225 12 155 9.7 20.9 0.00 0.00 0.00 77 1011.1
20260505005725 12 79 9.7 24.1 0.00 0.00 0.00 77 1011.1
20260505005225 12 137 8.0 24.1 0.00 0.00 0.00 77 1011.1
20260505004723 12 275 8.0 20.9 0.00 0.00 0.00 77 1011.0
20260505004221 12 161 9.7 35.4 0.00 0.00 0.00 76 1011.0
20260505003722 12 213 8.0 35.4 0.00 0.00 0.00 76 1011.0
20260505003224 12 232 8.0 27.4 0.00 0.00 0.00 75 1010.8
20260505002721 12 152 8.0 27.4 0.00 0.00 0.00 75 1010.6
20260505002220 12 207 8.0 20.9 0.00 0.00 0.00 74 1010.6
20260505001722 12 256 9.7 20.9 0.00 0.00 0.00 74 1010.5
20260505001219 12 156 8.0 22.5 0.00 0.00 0.00 73 1010.5
20260505000717 12 132 8.0 22.5 0.00 0.00 0.00 72 1010.3
20260505000218 12 168 8.0 22.5 0.00 0.00 0.00 71 1010.4
20260504235717 12 225 8.0 22.5 0.00 0.00 0.00 71 1010.3
20260504235218 12 210 9.7 22.5 0.00 0.00 0.00 71 1010.3
20260504234715 12 197 9.7 30.6 0.00 0.00 0.00 70 1010.2
20260504234214 12 180 9.7 30.6 0.00 0.00 0.00 70 1010.3
20260504233715 12 204 8.0 20.9 0.00 0.00 0.00 69 1010.3
20260504233216 12 193 8.0 20.9 0.00 0.00 0.00 69 1010.2
20260504232715 12 260 8.0 20.9 0.00 0.00 0.00 69 1010.2
20260504232212 12 145 8.0 20.9 0.00 0.00 0.00 70 1010.1
20260504231712 12 153 6.4 20.9 0.00 0.00 0.00 70 1010.0
20260504231212 12 205 8.0 22.5 0.00 0.00 0.00 70 1010.0
20260504230711 12 213 8.0 24.1 0.00 0.00 0.00 69 1009.9
20260504230207 12 177 8.0 27.4 0.00 0.00 0.00 69 1009.8
20260504225708 13 185 8.0 27.4 0.00 0.00 0.00 68 1009.9
20260504225209 13 173 9.7 19.3 0.00 0.00 0.00 67 1009.8
20260504224710 13 172 9.7 19.3 0.00 0.00 0.00 66 1009.7
20260504224208 13 160 9.7 20.9 0.00 0.00 0.00 65 1009.7
20260504223708 13 192 9.7 20.9 0.00 0.00 0.00 65 1009.8
20260504223205 13 247 9.7 20.9 0.00 0.00 0.00 65 1009.8
20260504222707 13 5 9.7 20.9 0.00 0.00 0.00 64 1009.8
20260504222206 13 171 9.7 29.0 0.00 0.00 0.00 64 1009.7
20260504221703 13 196 11.3 29.0 0.00 0.00 0.00 63 1009.8
20260504221205 13 254 11.3 29.0 0.00 0.00 0.00 64 1009.7
20260504220702 13 74 11.3 22.5 0.00 0.00 0.00 63 1009.7
20260504220202 14 178 11.3 27.4 0.00 0.00 0.00 63 1009.8
20260504215645 14 157 11.3 27.4 0.00 0.00 0.00 62 1009.8
20260504215142 14 202 9.7 29.0 0.00 0.00 0.00 62 1010.0
20260504214643 14 165 9.7 29.0 0.00 0.00 0.00 62 1009.9
20260504214141 14 162 9.7 29.0 0.00 0.00 0.00 62 1009.9
20260504213641 15 157 8.0 25.7 0.00 0.00 0.00 61 1009.9
20260504213140 15 173 9.7 25.7 0.00 0.00 0.00 61 1009.9
20260504212640 15 242 9.7 29.0 0.00 0.00 0.00 61 1009.9
20260504212139 15 161 9.7 29.0 0.00 0.00 0.00 61 1010.0
20260504211638 15 187 9.7 29.0 0.00 0.00 0.00 62 1010.0
20260504211138 15 182 9.7 29.0 0.00 0.00 0.00 61 1009.9
20260504210637 15 147 9.7 25.7 0.00 0.00 0.00 62 1009.8
20260504210138 15 165 11.3 25.7 0.00 0.00 0.00 61 1009.6
20260504205638 15 194 11.3 25.7 0.00 0.00 0.00 61 1009.6
20260504205136 15 169 11.3 24.1 0.00 0.00 0.00 60 1009.5
20260504204635 15 161 9.7 24.1 0.00 0.00 0.00 57 1009.5
20260504204134 16 177 9.7 19.3 0.00 0.00 0.00 54 1009.3
20260504203634 16 182 9.7 24.1 0.00 0.00 0.00 54 1009.4
20260504203134 16 170 9.7 24.1 0.00 0.00 0.00 54 1009.4
20260504202632 16 244 9.7 27.4 0.00 0.00 0.00 55 1009.2
20260504202132 16 94 9.7 27.4 0.00 0.00 0.00 56 1009.4
20260504201631 16 172 9.7 35.4 0.00 0.00 0.00 57 1009.3
20260504201131 16 213 11.3 35.4 0.00 0.00 0.00 56 1009.3
20260504200630 16 229 9.7 29.0 0.00 0.00 0.00 55 1009.3
20260504200129 16 184 11.3 29.0 0.00 0.00 0.00 54 1009.4
20260504195628 16 270 12.9 27.4 0.00 0.00 0.00 51 1009.3
20260504195129 16 219 12.9 27.4 0.00 0.00 0.00 50 1009.4
20260504194628 17 188 11.3 25.7 0.00 0.00 0.00 48 1009.2
20260504194126 17 275 8.0 22.5 0.00 0.00 0.00 50 1009.2
20260504193626 17 182 8.0 24.1 0.00 0.00 0.00 44 1009.3
20260504193125 17 298 9.7 24.1 0.00 0.00 0.00 45 1009.3
20260504192625 17 223 12.9 32.2 0.00 0.00 0.00 45 1009.6
20260504192125 17 227 14.5 32.2 0.00 0.00 0.00 44 1009.6
20260504191624 17 197 12.9 38.6 0.00 0.00 0.00 44 1009.6
20260504191122 17 285 14.5 38.6 0.00 0.00 0.00 44 1009.6
20260504190624 17 248 14.5 35.4 0.00 0.00 0.00 45 1009.7
20260504190123 17 138 11.3 35.4 0.00 0.00 0.00 45 1009.7
20260504185622 17 146 9.7 29.0 0.00 0.00 0.00 48 1009.8
20260504185121 17 318 8.0 20.9 0.00 0.00 0.00 48 1009.7
20260504184620 17 239 6.4 20.9 0.00 0.00 0.00 49 1009.7
20260504184120 17 210 9.7 33.8 0.00 0.00 0.00 51 1009.6
20260504183619 17 221 12.9 33.8 0.00 0.00 0.00 46 1009.5
20260504183117 17 262 11.3 29.0 0.00 0.00 0.00 46 1009.7
20260504182618 17 316 11.3 33.8 0.00 0.00 0.00 45 1009.5
20260504182115 17 192 11.3 33.8 0.00 0.00 0.00 47 1009.3
20260504181616 17 223 11.3 29.0 0.00 0.00 0.00 46 1009.4
20260504181115 17 304 11.3 27.4 0.00 0.00 0.00 48 1009.5
20260504180615 17 240 11.3 27.4 0.00 0.00 0.00 46 1009.3
20260504180114 17 235 9.7 25.7 0.00 0.00 0.00 49 1009.4
20260504175614 17 234 11.3 27.4 0.00 0.00 0.00 47 1009.4
20260504175114 17 246 12.9 27.4 0.00 0.00 0.00 48 1009.6
20260504174613 16 202 12.9 35.4 0.00 0.00 0.00 47 1009.7
20260504174110 16 237 12.9 35.4 0.00 0.00 0.00 45 1010.0
20260504173609 17 153 12.9 33.8 0.00 0.00 0.00 46 1009.7
20260504173111 17 173 11.3 33.8 0.00 0.00 0.00 46 1009.6
20260504172609 17 210 11.3 35.4 0.00 0.00 0.00 50 1009.5
20260504172109 17 223 9.7 35.4 0.00 0.00 0.00 46 1009.7
20260504171608 17 212 9.7 37.0 0.00 0.00 0.00 50 1009.5
20260504171106 17 240 9.7 40.2 0.00 0.00 0.00 48 1009.5
20260504170605 17 246 11.3 40.2 0.00 0.00 0.00 47 1009.6
20260504170105 17 157 11.3 32.2 0.00 0.00 0.00 47 1009.7
20260504151053 15 198 6.4 14.5 0.00 0.20 0.00 63 1010.5
20260504150553 15 159 6.4 14.5 0.00 0.20 0.00 64 1010.5
20260504141047 16 183 6.4 17.7 0.00 0.25 0.00 51 1010.6
20260504140548 16 213 6.4 20.9 0.00 0.25 0.00 52 1010.6
20260504130519 15 274 6.4 19.3 0.00 0.25 0.00 57 1010.8